Regional Weather Roundup
Issued by NWS

Home | Current Version | Previous Version | Graphics & Text | Print | Product List | Glossary On
Versions: 1 2 3 4 5 6 7 8 9 10 11 12 13 14 15 16 17 18 19 20 21 22 23 24 25 26 27 28 29 30 31 32 33 34 35 36 37 38 39 40 41 42 43 44 45 46 47 48 49 50
000
ASUS43 KBIS 280801
RWRND

NORTH DAKOTA REGIONAL WEATHER ROUNDUP
NATIONAL WEATHER SERVICE BISMARCK ND
200 AM CST WED JAN 28 2015

NOTE: "FAIR" INDICATES FEW OR NO CLOUDS BELOW 12,000 FEET WITH NO
SIGNIFICANT WEATHER AND/OR OBSTRUCTIONS TO VISIBILITY.


NDZ001>003-009>011-017-280900-
NORTHWEST NORTH DAKOTA

CITY           SKY/WX    TMP DP  RH WIND       PRES   REMARKS
WILLISTON      CLOUDY    32  31  96 CALM      29.74S
MINOT          MOCLDY    30  28  92 W5        29.74F
MINOT AFB      MOCLDY    29  29 100 NW6       29.75F
$$

NDZ018>021-031>035-040>046-280900-
SOUTHWEST NORTH DAKOTA

CITY           SKY/WX    TMP DP  RH WIND       PRES   REMARKS
BISMARCK       PTCLDY    30  29  96 CALM      29.75F
DICKINSON      CLEAR     32  27  81 W3        29.73F
GARRISON         N/A     30  29  96 N6        29.73F
HETTINGER ARPT PTCLDY    28  25  88 W3        29.77F
$$

NDZ004>008-012>016-024-026-027-054-280900-
NORTHEAST NORTH DAKOTA

CITY           SKY/WX    TMP DP  RH WIND       PRES   REMARKS
GRAND FORKS    CLOUDY    34  32  92 S12       29.85F
GRND FRKS AFB  CLOUDY    32  32 100 S12       29.84F FOG
DEVILS LAKE    CLOUDY    34  30  86 S9        29.77F VSB 1/2
$$

NDZ022-023-025-028>030-036>039-047>053-280900-
SOUTHEAST NORTH DAKOTA

CITY           SKY/WX    TMP DP  RH WIND       PRES   REMARKS
FARGO          CLOUDY    35  32  88 S17G29    29.86F
JAMESTOWN      FOG       33  32  96 S12       29.77F VSB 1/4
$$




USA.gov is the U.S. government's official web portal to all federal, state and local government web resources and services.